Location: Buch
(49.7331°N, 12.1098°E)
Time: 13:30:35
(UTC+00:00)

Landsat 7 - Pass Details

Date: 04 October 2021
Orbit: 701 x 703 km, 98.0° (Epoch: 22 October)

Event Time Altitude Azimuth Distance (km) Brightness Sun altitude
Exits shadow 18:25:46 22° 61° (ENE) 1,526 5.1 -17.3°
Maximum altitude 18:25:49 22° 60° (ENE) 1,526 5.1 -17.3°
Drops below altitude 10° 18:29:25 10° 11° (N) 2,181 6.4 -17.9°
Sets 18:32:06 0° 357° (N) 3,104 7.4 -18.3°
